This is the latest recevied weather packets stored in our database for station/object K0WOI. If no packets are shown the sender has not sent any weather packets the latest 10 day(s).
| Time | Temp. | Humidity | Pressure | Rain* | Wind** | Luminosity | Snow |
|---|---|---|---|---|---|---|---|
| 1777873853 | 10.56° C | 67% | 1005.4 hPa | 0 mm | - | 0 W/m² | - |
| 1777873549 | 10° C | 72% | 1005.5 hPa | 0 mm | - | 0 W/m² | - |
| 1777873247 | 10° C | 75% | 1005.6 hPa | 0 mm | - | 0 W/m² | - |
| 1777872943 | 10° C | 75% | 1005.6 hPa | 0 mm | - | 0 W/m² | - |
| 1777872641 | 9.44° C | 79% | 1005.5 hPa | 0 mm | - | 0 W/m² | - |
| 1777872338 | 8.89° C | 81% | 1005.4 hPa | 0 mm | - | 0 W/m² | - |
| 1777872036 | 8.89° C | 82% | 1005.7 hPa | 0 mm | - | 0 W/m² | - |
| 1777871732 | 9.44° C | 81% | 1005.5 hPa | 0 mm | - | 0 W/m² | - |
| 1777871428 | 9.44° C | 80% | 1005.5 hPa | 0 mm | - | 0 W/m² | - |
| 1777871126 | 9.44° C | 81% | 1005.8 hPa | 0 mm | - | 0 W/m² | - |
| 1777870823 | 9.44° C | 81% | 1005.8 hPa | 0 mm | - | 0 W/m² | - |
| 1777870519 | 9.44° C | 78% | 1005.9 hPa | 0 mm | - | 0 W/m² | - |
| 1777870215 | 9.44° C | 77% | 1006.1 hPa | 0 mm | - | 0 W/m² | - |
| 1777869913 | 9.44° C | 75% | 1005.9 hPa | 0 mm | - | 0 W/m² | - |
| 1777869609 | 10° C | 78% | 1006.2 hPa | 0 mm | - | 0 W/m² | - |
| 1777869306 | 10° C | 78% | 1005.9 hPa | 0 mm | - | 0 W/m² | - |
| 1777869004 | 10° C | 77% | 1006 hPa | 0 mm | - | 0 W/m² | - |
| 1777868701 | 10.56° C | 78% | 1005.9 hPa | 0 mm | - | 0 W/m² | - |
| 1777868397 | 10.56° C | 76% | 1006.1 hPa | 0 mm | - | 0 W/m² | - |
| 1777868093 | 10.56° C | 75% | 1006.1 hPa | 0 mm | - | 0 W/m² | - |
| 1777867789 | 10.56° C | 74% | 1006.1 hPa | 0 mm | - | 0 W/m² | - |
| 1777867487 | 11.11° C | 71% | 1006.1 hPa | 0 mm | - | 0 W/m² | - |
| 1777867183 | 11.11° C | 70% | 1006.1 hPa | 0 mm | - | 0 W/m² | - |
| 1777866881 | 11.67° C | 69% | 1006.4 hPa | 0 mm | - | 0 W/m² | - |
| 1777866577 | 12.22° C | 67% | 1006.4 hPa | 0 mm | - | 0 W/m² | - |
* Rain latest hour (hover to see other rain measurements)
** Current wind speed in m/s (hover to see current wind gust speed)